When you browse on this site, cookies collect data to enhance your experience and personalize the content and advertising you see.
Visit our Privacy Policy to learn more. By continuing to use the site, you agree to this use of cookies and data.
  • In Slovakia
  • List of Countries
  • For 7 days
  • Water Temperature
  • Satellite Maps
  • Weather Map
  • Weather Widgets
  • user-avatar
    Login

    Hourly Weather Uige

    Today, 21 March, Thursday

    Time Temperature Precipitation Wind Pressure Humidity
    00:00 +19°C° 0 mm 0 mps 689 mmHg 94%
    01:00 +19°C° 0 mm 0 mps 689 mmHg 94%
    02:00 +21°C° 0 mm 1 mps 689 mmHg 94%
    03:00 +21°C° 0 mm 1 mps 689 mmHg 94%
    04:00 +21°C° 0 mm 1 mps 689 mmHg 94%
    05:00 +21°C° 0 mm 1 mps 689 mmHg 94%
    06:00 +21°C° 0 mm 1 mps 690 mmHg 94%
    07:00 +22°C° 0 mm 1 mps 690 mmHg 94%
    08:00 +24°C° 0 mm 1 mps 691 mmHg 85%
    09:00 +26°C° 0 mm 2 mps 691 mmHg 76%
    10:00 +28°C° 0 mm 2 mps 692 mmHg 67%
    11:00 +29°C° 0 mm 2 mps 691 mmHg 62%
    12:00 +30°C° 0 mm 2 mps 691 mmHg 57%
    13:00 +31°C° 0 mm 2 mps 690 mmHg 52%
    14:00 +31°C° 0 mm 1 mps 690 mmHg 52%
    15:00 +32°C° 0 mm 1 mps 689 mmHg 52%
    16:00 +32°C° 0 mm 1 mps 688 mmHg 53%
    17:00 +29°C° 0 mm 1 mps 688 mmHg 60%
    18:00 +27°C° 0 mm 1 mps 688 mmHg 67%
    19:00 +25°C° 0 mm 1 mps 688 mmHg 74%
    20:00 +24°C° 0.2 mm 1 mps 689 mmHg 78%
    21:00 +24°C° 0.2 mm 1 mps 689 mmHg 81%
    22:00 +23°C° 0.2 mm 1 mps 690 mmHg 84%
    23:00 +22°C° 0 mm 1 mps 690 mmHg 85%

    Tomorrow, 22 March, Friday

    Time Temperature Precipitation Wind Pressure Humidity
    00:00 +22°C° 0 mm 1 mps 689 mmHg 85%
    01:00 +22°C° 0 mm 1 mps 689 mmHg 85%
    02:00 +22°C° 0 mm 1 mps 689 mmHg 87%
    03:00 +21°C° 0 mm 1 mps 689 mmHg 89%
    04:00 +21°C° 0 mm 1 mps 688 mmHg 91%
    05:00 +21°C° 0 mm 1 mps 689 mmHg 91%
    06:00 +22°C° 0 mm 1 mps 689 mmHg 90%
    07:00 +22°C° 0 mm 1 mps 690 mmHg 90%
    08:00 +25°C° 0 mm 1 mps 690 mmHg 77%
    09:00 +28°C° 0 mm 1 mps 691 mmHg 65%
    10:00 +31°C° 0 mm 1 mps 692 mmHg 53%
    11:00 +33°C° 0 mm 1 mps 692 mmHg 48%
    12:00 +34°C° 0 mm 1 mps 691 mmHg 44%
    13:00 +36°C° 0 mm 1 mps 691 mmHg 39%
    14:00 +35°C° 0 mm 1 mps 690 mmHg 42%
    15:00 +35°C° 0 mm 1 mps 689 mmHg 44%
    16:00 +32°C° 0 mm 0 mps 689 mmHg 47%
    17:00 +32°C° 0 mm 1 mps 689 mmHg 55%
    18:00 +29°C° 0 mm 1 mps 689 mmHg 63%
    19:00 +27°C° 0 mm 1 mps 690 mmHg 70%
    20:00 +26°C° 3.5 mm 1 mps 690 mmHg 79%
    21:00 +24°C° 3.5 mm 1 mps 690 mmHg 87%
    22:00 +23°C° 3.5 mm 2 mps 691 mmHg 96%
    23:00 +23°C° 0 mm 1 mps 691 mmHg 96%

    Day after tomorrow, 23 March, Saturday

    Time Temperature Precipitation Wind Pressure Humidity
    00:00 +22°C° 0 mm 1 mps 690 mmHg 97%
    01:00 +22°C° 0 mm 1 mps 690 mmHg 98%
    02:00 +22°C° 0 mm 1 mps 690 mmHg 98%
    03:00 +22°C° 0 mm 1 mps 689 mmHg 98%
    04:00 +22°C° 0 mm 1 mps 689 mmHg 98%
    05:00 +22°C° 0 mm 1 mps 690 mmHg 98%
    06:00 +23°C° 0 mm 1 mps 690 mmHg 98%
    07:00 +23°C° 0 mm 1 mps 691 mmHg 98%
    08:00 +25°C° 0.1 mm 1 mps 691 mmHg 92%
    09:00 +26°C° 0.1 mm 2 mps 692 mmHg 85%
    10:00 +27°C° 0.1 mm 2 mps 692 mmHg 79%
    11:00 +28°C° 1.4 mm 2 mps 692 mmHg 77%
    12:00 +29°C° 1.4 mm 2 mps 691 mmHg 74%
    13:00 +30°C° 1.4 mm 2 mps 690 mmHg 72%
    14:00 +29°C° 0.9 mm 2 mps 690 mmHg 77%
    15:00 +28°C° 0.9 mm 2 mps 689 mmHg 83%
    16:00 +27°C° 0.9 mm 2 mps 689 mmHg 88%
    17:00 +26°C° 3.8 mm 2 mps 689 mmHg 91%
    18:00 +24°C° 3.8 mm 1 mps 690 mmHg 93%
    19:00 +23°C° 3.8 mm 1 mps 690 mmHg 96%
    20:00 +23°C° 1.7 mm 1 mps 690 mmHg 97%
    21:00 +23°C° 1.7 mm 1 mps 691 mmHg 97%
    22:00 +23°C° 1.7 mm 1 mps 691 mmHg 98%
    23:00 +22°C° 0.1 mm 1 mps 691 mmHg 98%

    24 March, Sunday

    Time Temperature Precipitation Wind Pressure Humidity
    00:00 +22°C° 0.1 mm 1 mps 690 mmHg 98%
    01:00 +21°C° 0.1 mm 1 mps 689 mmHg 98%
    02:00 +21°C° 0 mm 1 mps 689 mmHg 98%
    03:00 +21°C° 0 mm 1 mps 689 mmHg 99%
    04:00 +21°C° 0 mm 1 mps 689 mmHg 99%
    05:00 +21°C° 0 mm 1 mps 690 mmHg 99%
    06:00 +22°C° 0 mm 1 mps 690 mmHg 98%
    07:00 +22°C° 0 mm 1 mps 691 mmHg 98%
    08:00 +24°C° 0.1 mm 1 mps 691 mmHg 92%
    09:00 +25°C° 0.1 mm 2 mps 692 mmHg 86%
    10:00 +27°C° 0.1 mm 2 mps 692 mmHg 80%
    11:00 +27°C° 1.3 mm 1 mps 692 mmHg 83%
    12:00 +27°C° 1.3 mm 1 mps 691 mmHg 86%
    13:00 +26°C° 1.3 mm 1 mps 690 mmHg 89%
    14:00 +26°C° 0.4 mm 1 mps 690 mmHg 87%
    15:00 +26°C° 0.4 mm 1 mps 689 mmHg 85%
    16:00 +26°C° 0.4 mm 1 mps 689 mmHg 83%
    17:00 +25°C° 0.3 mm 1 mps 690 mmHg 88%
    18:00 +24°C° 0.3 mm 1 mps 690 mmHg 92%
    19:00 +23°C° 0.3 mm 1 mps 690 mmHg 96%
    20:00 +22°C° 0 mm 1 mps 691 mmHg 97%
    21:00 +22°C° 0 mm 1 mps 691 mmHg 98%
    22:00 +22°C° 0 mm 1 mps 691 mmHg 98%
    23:00 +22°C° 0 mm 1 mps 691 mmHg 99%

    25 March, Monday

    Time Temperature Precipitation Wind Pressure Humidity
    00:00 +22°C° 0 mm 1 mps 690 mmHg 99%
    01:00 +22°C° 0 mm 1 mps 690 mmHg 99%
    02:00 +22°C° 0 mm 1 mps 690 mmHg 99%
    03:00 +22°C° 0 mm 1 mps 689 mmHg 99%
    04:00 +22°C° 0 mm 1 mps 689 mmHg 99%
    05:00 +20°C° 0.2 mm 0 mps 690 mmHg 98%
    06:00 +20°C° 0.2 mm 0 mps 691 mmHg 98%
    07:00 +20°C° 0.2 mm 0 mps 691 mmHg 97%
    08:00 +22°C° 0.4 mm 0 mps 692 mmHg 92%
    09:00 +24°C° 0.4 mm 0 mps 692 mmHg 87%
    10:00 +27°C° 0.4 mm 1 mps 692 mmHg 82%
    11:00 +28°C° 0.1 mm 1 mps 692 mmHg 77%
    12:00 +28°C° 0.1 mm 1 mps 691 mmHg 73%
    13:00 +28°C° 0.1 mm 1 mps 690 mmHg 68%
    14:00 +28°C° 0.4 mm 1 mps 690 mmHg 69%
    15:00 +28°C° 0.4 mm 1 mps 689 mmHg 70%
    16:00 +28°C° 0.4 mm 1 mps 689 mmHg 71%
    17:00 +27°C° 0.2 mm 1 mps 689 mmHg 77%
    18:00 +26°C° 0.2 mm 1 mps 690 mmHg 82%
    19:00 +24°C° 0.2 mm 1 mps 690 mmHg 88%
    20:00 +24°C° 0.4 mm 1 mps 690 mmHg 91%
    21:00 +23°C° 0.4 mm 1 mps 691 mmHg 94%
    22:00 +22°C° 0.4 mm 1 mps 691 mmHg 98%
    23:00 +22°C° 0 mm 1 mps 691 mmHg 98%

    26 March, Tuesday

    Time Temperature Precipitation Wind Pressure Humidity
    00:00 +22°C° 0 mm 1 mps 690 mmHg 98%
    01:00 +22°C° 0 mm 1 mps 690 mmHg 98%
    02:00 +21°C° 0 mm 1 mps 690 mmHg 97%
    03:00 +21°C° 0 mm 1 mps 690 mmHg 96%
    04:00 +21°C° 0 mm 1 mps 689 mmHg 95%
    05:00 +21°C° 0 mm 1 mps 690 mmHg 93%
    06:00 +22°C° 0 mm 1 mps 690 mmHg 91%
    07:00 +22°C° 0 mm 1 mps 691 mmHg 89%
    08:00 +22°C° 0 mm 0 mps 692 mmHg 83%
    09:00 +24°C° 0 mm 0 mps 692 mmHg 76%
    10:00 +25°C° 0 mm 0 mps 693 mmHg 70%
    11:00 +27°C° 0 mm 0 mps 692 mmHg 64%
    12:00 +30°C° 0 mm 1 mps 692 mmHg 58%
    13:00 +31°C° 0 mm 1 mps 691 mmHg 52%
    14:00 +31°C° 0 mm 1 mps 691 mmHg 55%
    15:00 +31°C° 0 mm 1 mps 690 mmHg 57%
    16:00 +30°C° 0 mm 1 mps 690 mmHg 60%
    17:00 +28°C° 0.3 mm 1 mps 690 mmHg 69%
    18:00 +26°C° 0.3 mm 1 mps 691 mmHg 77%
    19:00 +24°C° 0.3 mm 1 mps 691 mmHg 86%
    20:00 +24°C° 0 mm 1 mps 691 mmHg 88%
    21:00 +21°C° 0 mm 0 mps 691 mmHg 90%
    22:00 +21°C° 0 mm 0 mps 692 mmHg 92%
    23:00 +20°C° 0 mm 0 mps 691 mmHg 93%
    Show more